Time,TemperatureF,DewpointF,PressureIn,WindDirection,WindDirectionDegrees,WindSpeedMPH,WindSpeedGustMPH,Humidity,HourlyPrecipIn,Conditions,Clouds,dailyrainin,SoftwareType,DateUTC
2013-04-12 00:00:00,39.4,33.9,29.40,East,90,1.6,1.6,80,0.00,,,0.00,WUHU216HW,2013-04-11 23:00:00,
2013-04-12 00:05:00,39.4,33.9,29.40,SE,135,0.9,1.6,80,0.00,,,0.00,WUHU216HW,2013-04-11 23:05:00,
2013-04-12 00:10:00,39.4,33.9,29.40,SE,135,0.4,0.9,80,0.00,,,0.00,WUHU216HW,2013-04-11 23:10:00,
2013-04-12 00:15:00,39.2,33.7,29.40,East,90,0.4,0.9,80,0.00,,,0.00,WUHU216HW,2013-04-11 23:15:00,
2013-04-12 00:20:00,39.2,33.7,29.40,ESE,113,1.1,1.1,80,0.00,,,0.00,WUHU216HW,2013-04-11 23:20:00,
2013-04-12 00:25:00,39.2,33.7,29.40,SE,135,4.3,4.3,80,0.00,,,0.00,WUHU216HW,2013-04-11 23:25:00,
2013-04-12 00:30:00,39.2,33.7,29.40,ESE,113,2.2,4.3,80,0.00,,,0.00,WUHU216HW,2013-04-11 23:30:00,
2013-04-12 00:35:00,39.2,33.7,29.40,SE,135,0.7,4.3,80,0.00,,,0.00,WUHU216HW,2013-04-11 23:35:00,
2013-04-12 00:40:00,39.2,33.3,29.40,SE,135,1.8,2.2,79,0.00,,,0.00,WUHU216HW,2013-04-11 23:40:00,
2013-04-12 00:45:00,39.2,33.3,29.40,ESE,113,1.8,1.8,79,0.00,,,0.00,WUHU216HW,2013-04-11 23:45:00,
2013-04-12 00:50:00,39.2,33.3,29.40,ENE,68,1.1,1.8,79,0.00,,,0.00,WUHU216HW,2013-04-11 23:50:00,
2013-04-12 00:55:00,39.1,33.1,29.40,ESE,113,0.7,1.8,79,0.00,,,0.00,WUHU216HW,2013-04-11 23:55:00,
2013-04-12 01:00:00,39.1,33.5,29.40,East,90,1.3,1.3,80,0.00,,,0.00,WUHU216HW,2013-04-12 00:00:00,
2013-04-12 01:05:00,38.9,33.3,29.40,ESE,113,0.7,1.3,80,0.00,,,0.00,WUHU216HW,2013-04-12 00:05:00,
2013-04-12 01:10:00,38.9,33.3,29.40,SE,135,2.2,2.2,80,0.00,,,0.00,WUHU216HW,2013-04-12 00:10:00,
2013-04-12 01:16:00,38.5,33.5,29.40,East,90,1.1,4.0,82,0.00,,,0.00,WUHU216HW,2013-04-12 00:16:00,
2013-04-12 01:21:00,38.5,33.5,29.39,ESE,113,2.7,4.0,82,0.00,,,0.00,WUHU216HW,2013-04-12 00:21:00,
2013-04-12 01:26:00,38.5,33.5,29.39,SE,135,2.5,2.7,82,0.00,,,0.00,WUHU216HW,2013-04-12 00:26:00,
2013-04-12 01:31:00,38.3,33.7,29.39,ESE,113,2.5,2.7,83,0.00,,,0.00,WUHU216HW,2013-04-12 00:31:00,
2013-04-12 01:36:00,38.2,33.8,29.40,East,90,2.2,2.5,84,0.00,,,0.00,WUHU216HW,2013-04-12 00:36:00,
2013-04-12 01:41:00,38.2,33.8,29.40,ESE,113,0.7,2.5,84,0.00,,,0.00,WUHU216HW,2013-04-12 00:41:00,
2013-04-12 01:46:00,37.8,33.4,29.39,SE,135,0.7,2.2,84,0.00,,,0.00,WUHU216HW,2013-04-12 00:46:00,
2013-04-12 01:51:00,37.8,33.4,29.39,SE,135,1.6,1.6,84,0.00,,,0.00,WUHU216HW,2013-04-12 00:51:00,
2013-04-12 01:56:00,37.8,33.7,29.39,ESE,113,2.0,2.0,85,0.00,,,0.00,WUHU216HW,2013-04-12 00:56:00,
2013-04-12 02:01:00,37.8,33.9,29.39,SE,135,2.9,2.9,86,0.00,,,0.00,WUHU216HW,2013-04-12 01:01:00,
2013-04-12 02:06:00,37.8,33.9,29.39,SE,135,1.1,2.9,86,0.01,,,0.01,WUHU216HW,2013-04-12 01:06:00,
2013-04-12 02:11:00,37.6,33.8,29.39,ESE,113,0.7,2.9,86,0.01,,,0.01,WUHU216HW,2013-04-12 01:11:00,
2013-04-12 02:16:00,37.6,33.8,29.38,East,90,0.9,1.1,86,0.01,,,0.01,WUHU216HW,2013-04-12 01:16:00,
2013-04-12 02:21:00,37.6,33.8,29.38,East,90,1.1,1.1,86,0.01,,,0.01,WUHU216HW,2013-04-12 01:21:00,
2013-04-12 02:26:00,37.4,33.6,29.38,ESE,113,1.6,1.6,86,0.01,,,0.01,WUHU216HW,2013-04-12 01:26:00,
2013-04-12 02:31:00,37.3,33.7,29.38,ESE,113,0.4,1.6,87,0.01,,,0.01,WUHU216HW,2013-04-12 01:31:00,
2013-04-12 02:36:00,37.3,33.7,29.38,SE,135,2.0,2.0,87,0.01,,,0.01,WUHU216HW,2013-04-12 01:36:00,
2013-04-12 02:41:00,37.3,33.7,29.37,SSE,158,1.1,4.7,87,0.01,,,0.01,WUHU216HW,2013-04-12 01:41:00,
2013-04-12 02:46:00,37.4,33.8,29.37,SE,135,2.2,4.7,87,0.01,,,0.01,WUHU216HW,2013-04-12 01:46:00,
2013-04-12 02:51:00,37.3,33.7,29.38,NE,45,2.0,2.2,87,0.01,,,0.01,WUHU216HW,2013-04-12 01:51:00,
2013-04-12 02:56:00,37.3,33.7,29.37,East,90,0.2,2.2,87,0.01,,,0.01,WUHU216HW,2013-04-12 01:56:00,
2013-04-12 03:01:00,37.3,33.7,29.38,East,90,2.5,2.5,87,0.01,,,0.01,WUHU216HW,2013-04-12 02:01:00,
2013-04-12 03:06:00,37.3,33.7,29.38,East,90,1.3,2.5,87,0.00,,,0.01,WUHU216HW,2013-04-12 02:06:00,
2013-04-12 03:11:00,37.1,33.5,29.37,SE,135,1.1,2.5,87,0.01,,,0.01,WUHU216HW,2013-04-12 02:11:00,
2013-04-12 03:16:00,37.1,33.5,29.37,SE,135,0.9,1.1,87,0.01,,,0.02,WUHU216HW,2013-04-12 02:16:00,
2013-04-12 03:21:00,37.1,33.5,29.37,SE,135,1.1,1.1,87,0.01,,,0.02,WUHU216HW,2013-04-12 02:21:00,
2013-04-12 03:26:00,37.1,33.5,29.37,ESE,113,2.5,2.5,87,0.01,,,0.02,WUHU216HW,2013-04-12 02:26:00,
2013-04-12 03:32:00,37.1,33.5,29.37,SE,135,1.6,2.5,87,0.01,,,0.02,WUHU216HW,2013-04-12 02:32:00,
2013-04-12 03:37:00,37.1,33.5,29.37,East,90,0.0,2.5,87,0.01,,,0.02,WUHU216HW,2013-04-12 02:37:00,
2013-04-12 03:42:00,37.1,33.5,29.37,SSE,158,0.4,1.6,87,0.01,,,0.02,WUHU216HW,2013-04-12 02:42:00,
2013-04-12 03:47:00,37.1,33.5,29.37,SE,135,0.4,1.1,87,0.01,,,0.02,WUHU216HW,2013-04-12 02:47:00,
2013-04-12 03:52:00,37.1,33.5,29.37,SE,135,1.1,1.1,87,0.01,,,0.02,WUHU216HW,2013-04-12 02:52:00,
2013-04-12 03:57:00,37.1,33.5,29.37,East,90,0.2,1.1,87,0.01,,,0.02,WUHU216HW,2013-04-12 02:57:00,
2013-04-12 04:02:00,36.9,33.3,29.37,East,90,0.9,1.1,87,0.01,,,0.02,WUHU216HW,2013-04-12 03:02:00,
2013-04-12 04:07:00,36.9,33.7,29.37,East,90,1.3,1.8,88,0.01,,,0.02,WUHU216HW,2013-04-12 03:07:00,
2013-04-12 04:12:00,36.9,33.3,29.37,ESE,113,1.6,1.8,87,0.00,,,0.02,WUHU216HW,2013-04-12 03:12:00,
2013-04-12 04:17:00,36.9,33.7,29.36,SE,135,0.4,1.6,88,0.00,,,0.02,WUHU216HW,2013-04-12 03:17:00,
2013-04-12 04:22:00,36.9,33.7,29.36,ESE,113,1.8,1.8,88,0.00,,,0.02,WUHU216HW,2013-04-12 03:22:00,
2013-04-12 04:27:00,36.9,33.7,29.36,SE,135,0.7,2.9,88,0.00,,,0.02,WUHU216HW,2013-04-12 03:27:00,
2013-04-12 04:32:00,36.9,33.3,29.37,SE,135,1.1,2.9,87,0.00,,,0.02,WUHU216HW,2013-04-12 03:32:00,
2013-04-12 04:37:00,36.9,33.7,29.37,ESE,113,0.9,1.1,88,0.00,,,0.02,WUHU216HW,2013-04-12 03:37:00,
2013-04-12 04:42:00,36.9,33.3,29.37,SE,135,0.7,1.1,87,0.00,,,0.02,WUHU216HW,2013-04-12 03:42:00,
2013-04-12 04:47:00,36.9,33.3,29.37,East,90,1.3,1.3,87,0.00,,,0.02,WUHU216HW,2013-04-12 03:47:00,
2013-04-12 04:52:00,36.9,33.3,29.37,East,90,2.7,2.7,87,0.00,,,0.02,WUHU216HW,2013-04-12 03:52:00,
2013-04-12 04:57:00,36.7,33.5,29.37,ENE,68,0.7,2.7,88,0.00,,,0.02,WUHU216HW,2013-04-12 03:57:00,
2013-04-12 05:02:00,36.7,33.5,29.37,SE,135,1.8,1.8,88,0.00,,,0.02,WUHU216HW,2013-04-12 04:02:00,
2013-04-12 05:07:00,36.7,33.5,29.37,ESE,113,1.1,1.8,88,0.00,,,0.02,WUHU216HW,2013-04-12 04:07:00,
2013-04-12 05:12:00,36.5,33.3,29.37,NE,45,3.8,3.8,88,0.01,,,0.03,WUHU216HW,2013-04-12 04:12:00,
2013-04-12 05:17:00,36.5,33.3,29.37,ESE,113,0.4,3.8,88,0.01,,,0.03,WUHU216HW,2013-04-12 04:17:00,
2013-04-12 05:22:00,36.7,33.8,29.37,East,90,0.9,3.8,89,0.01,,,0.03,WUHU216HW,2013-04-12 04:22:00,
2013-04-12 05:27:00,36.7,33.5,29.37,ESE,113,0.7,0.9,88,0.01,,,0.03,WUHU216HW,2013-04-12 04:27:00,
2013-04-12 05:32:00,36.7,33.8,29.37,East,90,1.1,1.1,89,0.01,,,0.03,WUHU216HW,2013-04-12 04:32:00,
2013-04-12 05:37:00,36.7,33.5,29.37,SSE,158,1.8,1.8,88,0.01,,,0.03,WUHU216HW,2013-04-12 04:37:00,
2013-04-12 05:42:00,36.7,33.5,29.37,ESE,113,1.8,1.8,88,0.01,,,0.03,WUHU216HW,2013-04-12 04:42:00,
2013-04-12 05:47:00,36.7,33.5,29.37,ESE,113,1.3,1.8,88,0.01,,,0.03,WUHU216HW,2013-04-12 04:47:00,
2013-04-12 05:52:00,36.9,33.7,29.37,ENE,68,0.7,1.8,88,0.01,,,0.03,WUHU216HW,2013-04-12 04:52:00,
2013-04-12 05:57:00,36.9,33.7,29.37,ESE,113,3.4,3.4,88,0.01,,,0.03,WUHU216HW,2013-04-12 04:57:00,
2013-04-12 06:02:00,36.9,33.7,29.37,SE,135,0.7,3.4,88,0.01,,,0.03,WUHU216HW,2013-04-12 05:02:00,
2013-04-12 06:07:00,36.9,33.7,29.37,SE,135,0.7,1.8,88,0.00,,,0.03,WUHU216HW,2013-04-12 05:07:00,
2013-04-12 06:12:00,36.9,33.7,29.37,SE,135,1.1,1.1,88,0.00,,,0.03,WUHU216HW,2013-04-12 05:12:00,
2013-04-12 06:17:00,36.9,33.7,29.37,SE,135,1.1,1.1,88,0.00,,,0.03,WUHU216HW,2013-04-12 05:17:00,
2013-04-12 06:22:00,36.9,33.7,29.37,ESE,113,2.0,2.0,88,0.00,,,0.03,WUHU216HW,2013-04-12 05:22:00,
2013-04-12 06:27:00,37.1,33.9,29.37,ESE,113,0.4,2.0,88,0.00,,,0.03,WUHU216HW,2013-04-12 05:27:00,
2013-04-12 06:32:00,37.1,33.9,29.37,SE,135,2.2,2.2,88,0.00,,,0.03,WUHU216HW,2013-04-12 05:32:00,
2013-04-12 06:37:00,37.1,33.9,29.37,ESE,113,0.7,2.2,88,0.00,,,0.03,WUHU216HW,2013-04-12 05:37:00,
2013-04-12 06:42:00,37.1,33.9,29.37,SSE,158,2.2,2.2,88,0.00,,,0.03,WUHU216HW,2013-04-12 05:42:00,
2013-04-12 06:47:00,37.3,33.7,29.37,ESE,113,0.2,2.2,87,0.00,,,0.03,WUHU216HW,2013-04-12 05:47:00,
2013-04-12 06:52:00,37.3,33.7,29.38,SE,135,0.2,2.2,87,0.00,,,0.03,WUHU216HW,2013-04-12 05:52:00,
2013-04-12 06:57:00,37.4,33.8,29.38,NE,45,1.1,1.6,87,0.00,,,0.03,WUHU216HW,2013-04-12 05:57:00,
2013-04-12 07:02:00,37.4,33.8,29.38,ENE,68,1.1,1.1,87,0.00,,,0.03,WUHU216HW,2013-04-12 06:02:00,
2013-04-12 07:07:00,37.4,33.8,29.38,East,90,1.3,1.3,87,0.00,,,0.03,WUHU216HW,2013-04-12 06:07:00,
2013-04-12 07:12:00,37.4,34.2,29.38,SE,135,2.7,2.7,88,0.00,,,0.03,WUHU216HW,2013-04-12 06:12:00,
2013-04-12 07:17:00,37.4,34.5,29.38,ESE,113,0.4,2.7,89,0.00,,,0.03,WUHU216HW,2013-04-12 06:17:00,
2013-04-12 07:22:00,37.4,34.2,29.38,SSE,158,1.8,2.7,88,0.00,,,0.03,WUHU216HW,2013-04-12 06:22:00,
2013-04-12 07:27:00,37.4,34.5,29.38,SE,135,0.7,1.8,89,0.00,,,0.03,WUHU216HW,2013-04-12 06:27:00,
2013-04-12 07:32:00,37.4,34.5,29.38,SE,135,0.4,1.8,89,0.00,,,0.03,WUHU216HW,2013-04-12 06:32:00,
2013-04-12 07:37:00,37.4,34.5,29.38,ESE,113,3.4,3.4,89,0.00,,,0.03,WUHU216HW,2013-04-12 06:37:00,
2013-04-12 07:42:00,37.6,34.7,29.38,ESE,113,1.1,3.4,89,0.00,,,0.03,WUHU216HW,2013-04-12 06:42:00,
2013-04-12 07:47:00,37.8,34.8,29.38,ESE,113,4.9,4.9,89,0.00,,,0.03,WUHU216HW,2013-04-12 06:47:00,
2013-04-12 07:52:00,37.8,34.8,29.38,ESE,113,2.7,4.9,89,0.00,,,0.03,WUHU216HW,2013-04-12 06:52:00,
2013-04-12 07:57:00,37.8,34.8,29.39,ESE,113,4.0,4.9,89,0.01,,,0.04,WUHU216HW,2013-04-12 06:57:00,
2013-04-12 08:02:00,38.0,35.0,29.39,SSE,158,2.2,4.0,89,0.01,,,0.04,WUHU216HW,2013-04-12 07:02:00,
2013-04-12 08:07:00,38.0,35.0,29.39,East,90,1.6,3.1,89,0.01,,,0.04,WUHU216HW,2013-04-12 07:07:00,
2013-04-12 08:13:00,38.0,35.0,29.38,North,0,1.6,2.2,89,0.01,,,0.04,WUHU216HW,2013-04-12 07:13:00,
2013-04-12 08:18:00,38.0,35.0,29.39,NNE,23,1.8,1.8,89,0.01,,,0.04,WUHU216HW,2013-04-12 07:18:00,
2013-04-12 08:23:00,38.2,35.2,29.39,ESE,113,2.7,2.7,89,0.01,,,0.04,WUHU216HW,2013-04-12 07:23:00,
2013-04-12 08:28:00,38.2,35.2,29.39,ESE,113,1.8,2.7,89,0.01,,,0.04,WUHU216HW,2013-04-12 07:28:00,
2013-04-12 08:33:00,38.2,35.2,29.39,ESE,113,0.9,2.7,89,0.01,,,0.04,WUHU216HW,2013-04-12 07:33:00,
2013-04-12 08:38:00,38.3,35.4,29.39,SSE,158,1.1,1.1,89,0.01,,,0.04,WUHU216HW,2013-04-12 07:38:00,
2013-04-12 08:43:00,38.3,35.4,29.39,East,90,2.5,2.5,89,0.01,,,0.04,WUHU216HW,2013-04-12 07:43:00,
2013-04-12 08:48:00,38.5,35.6,29.39,SSE,158,2.7,4.3,89,0.01,,,0.04,WUHU216HW,2013-04-12 07:48:00,
2013-04-12 08:53:00,38.5,35.6,29.39,ESE,113,2.7,4.3,89,0.00,,,0.04,WUHU216HW,2013-04-12 07:53:00,
2013-04-12 08:58:00,38.5,35.6,29.40,East,90,4.5,4.5,89,0.00,,,0.04,WUHU216HW,2013-04-12 07:58:00,
2013-04-12 09:03:00,38.7,35.7,29.40,SE,135,1.6,4.5,89,0.01,,,0.05,WUHU216HW,2013-04-12 08:03:00,
2013-04-12 09:08:00,38.7,35.7,29.40,East,90,0.9,1.8,89,0.01,,,0.05,WUHU216HW,2013-04-12 08:08:00,
2013-04-12 09:13:00,39.1,36.1,29.40,ESE,113,4.9,4.9,89,0.01,,,0.05,WUHU216HW,2013-04-12 08:13:00,
2013-04-12 09:18:00,39.1,36.1,29.40,SE,135,3.4,4.9,89,0.01,,,0.05,WUHU216HW,2013-04-12 08:18:00,
2013-04-12 09:23:00,39.1,36.1,29.40,SE,135,4.3,4.9,89,0.01,,,0.05,WUHU216HW,2013-04-12 08:23:00,
2013-04-12 09:28:00,39.2,36.0,29.40,ESE,113,7.6,7.6,88,0.01,,,0.05,WUHU216HW,2013-04-12 08:28:00,
2013-04-12 09:33:00,39.4,36.2,29.40,ESE,113,4.3,7.6,88,0.01,,,0.05,WUHU216HW,2013-04-12 08:33:00,
2013-04-12 09:38:00,39.4,35.8,29.40,ESE,113,2.5,4.3,87,0.01,,,0.05,WUHU216HW,2013-04-12 08:38:00,
2013-04-12 09:43:00,39.6,36.0,29.41,SE,135,4.0,4.3,87,0.01,,,0.05,WUHU216HW,2013-04-12 08:43:00,
2013-04-12 09:48:00,39.8,36.2,29.41,ESE,113,0.9,4.0,87,0.01,,,0.05,WUHU216HW,2013-04-12 08:48:00,
2013-04-12 09:53:00,39.8,36.2,29.41,East,90,0.7,3.4,87,0.01,,,0.05,WUHU216HW,2013-04-12 08:53:00,
2013-04-12 09:58:00,39.8,36.2,29.41,SE,135,1.3,1.3,87,0.00,,,0.05,WUHU216HW,2013-04-12 08:58:00,
2013-04-12 10:03:00,39.8,36.2,29.41,ENE,68,2.2,2.2,87,0.00,,,0.05,WUHU216HW,2013-04-12 09:03:00,
2013-04-12 10:08:00,40.0,36.4,29.41,East,90,1.1,2.2,87,0.00,,,0.05,WUHU216HW,2013-04-12 09:08:00,
2013-04-12 10:13:00,40.0,36.6,29.41,NE,45,1.8,2.2,88,0.00,,,0.05,WUHU216HW,2013-04-12 09:13:00,
2013-04-12 10:18:00,40.5,37.2,29.42,SE,135,2.2,2.2,88,0.00,,,0.05,WUHU216HW,2013-04-12 09:18:00,
2013-04-12 10:23:00,40.5,36.9,29.42,ESE,113,2.7,2.7,87,0.00,,,0.05,WUHU216HW,2013-04-12 09:23:00,
2013-04-12 10:28:00,40.7,37.1,29.42,ESE,113,1.3,2.7,87,0.00,,,0.05,WUHU216HW,2013-04-12 09:28:00,
2013-04-12 10:33:00,40.7,37.1,29.42,ESE,113,1.1,2.7,87,0.00,,,0.05,WUHU216HW,2013-04-12 09:33:00,
2013-04-12 10:38:00,40.7,37.1,29.42,SE,135,2.5,2.5,87,0.00,,,0.05,WUHU216HW,2013-04-12 09:38:00,
2013-04-12 10:43:00,40.7,37.1,29.42,East,90,1.8,2.5,87,0.00,,,0.05,WUHU216HW,2013-04-12 09:43:00,
2013-04-12 10:48:00,40.7,37.1,29.42,ESE,113,1.6,2.5,87,0.00,,,0.05,WUHU216HW,2013-04-12 09:48:00,
2013-04-12 10:53:00,41.0,37.5,29.42,SE,135,4.7,4.7,87,0.01,,,0.06,WUHU216HW,2013-04-12 09:53:00,
2013-04-12 10:58:00,41.4,37.8,29.43,East,90,1.8,4.7,87,0.01,,,0.06,WUHU216HW,2013-04-12 09:58:00,
2013-04-12 11:03:00,41.4,37.8,29.43,ESE,113,0.2,4.7,87,0.01,,,0.06,WUHU216HW,2013-04-12 10:03:00,
2013-04-12 11:08:00,41.9,37.7,29.43,SE,135,1.1,1.8,85,0.01,,,0.06,WUHU216HW,2013-04-12 10:08:00,
2013-04-12 11:13:00,41.9,37.7,29.43,East,90,2.5,2.5,85,0.01,,,0.06,WUHU216HW,2013-04-12 10:13:00,
2013-04-12 11:18:00,42.1,37.9,29.43,ESE,113,1.1,2.5,85,0.01,,,0.06,WUHU216HW,2013-04-12 10:18:00,
2013-04-12 11:23:00,42.1,37.9,29.43,SE,135,2.5,2.5,85,0.01,,,0.06,WUHU216HW,2013-04-12 10:23:00,
2013-04-12 11:28:00,42.1,37.9,29.43,SE,135,2.9,2.9,85,0.01,,,0.06,WUHU216HW,2013-04-12 10:28:00,
2013-04-12 11:33:00,42.1,37.9,29.43,SE,135,3.4,3.4,85,0.01,,,0.06,WUHU216HW,2013-04-12 10:33:00,
2013-04-12 11:39:00,42.1,37.6,29.43,ENE,68,2.0,3.4,84,0.01,,,0.06,WUHU216HW,2013-04-12 10:39:00,
2013-04-12 11:44:00,42.3,37.8,29.43,NE,45,1.8,3.4,84,0.01,,,0.06,WUHU216HW,2013-04-12 10:44:00,
2013-04-12 11:49:00,42.3,37.4,29.43,ESE,113,1.6,2.0,83,0.00,,,0.06,WUHU216HW,2013-04-12 10:49:00,
2013-04-12 11:54:00,42.5,38.0,29.43,East,90,2.7,2.7,84,0.00,,,0.06,WUHU216HW,2013-04-12 10:54:00,
2013-04-12 11:59:00,42.5,38.0,29.43,ESE,113,1.3,2.7,84,0.00,,,0.06,WUHU216HW,2013-04-12 10:59:00,
2013-04-12 12:04:00,42.5,38.0,29.43,SE,135,0.2,2.7,84,0.00,,,0.06,WUHU216HW,2013-04-12 11:04:00,
2013-04-12 12:09:00,42.7,38.2,29.43,North,0,1.1,1.3,84,0.00,,,0.06,WUHU216HW,2013-04-12 11:09:00,
2013-04-12 12:14:00,42.8,38.6,29.44,ESE,113,1.6,1.6,85,0.00,,,0.06,WUHU216HW,2013-04-12 11:14:00,
2013-04-12 12:19:00,42.7,38.4,29.44,NNE,23,1.1,1.6,85,0.00,,,0.06,WUHU216HW,2013-04-12 11:19:00,
2013-04-12 12:24:00,42.7,38.4,29.44,East,90,1.3,1.6,85,0.00,,,0.06,WUHU216HW,2013-04-12 11:24:00,
2013-04-12 12:29:00,42.7,38.2,29.44,NNE,23,0.7,3.8,84,0.00,,,0.06,WUHU216HW,2013-04-12 11:29:00,
2013-04-12 12:34:00,42.7,38.4,29.44,SE,135,2.5,3.8,85,0.00,,,0.06,WUHU216HW,2013-04-12 11:34:00,
2013-04-12 12:39:00,42.8,38.6,29.44,SE,135,0.7,2.5,85,0.00,,,0.06,WUHU216HW,2013-04-12 11:39:00,
2013-04-12 12:44:00,43.0,38.2,29.44,ESE,113,2.5,2.5,83,0.00,,,0.06,WUHU216HW,2013-04-12 11:44:00,
2013-04-12 12:49:00,43.2,38.7,29.44,East,90,1.6,2.5,84,0.00,,,0.06,WUHU216HW,2013-04-12 11:49:00,
2013-04-12 12:54:00,43.2,38.7,29.45,ESE,113,0.9,2.5,84,0.00,,,0.06,WUHU216HW,2013-04-12 11:54:00,
2013-04-12 12:59:00,43.2,38.3,29.45,NNE,23,1.6,1.6,83,0.00,,,0.06,WUHU216HW,2013-04-12 11:59:00,
2013-04-12 13:04:00,43.6,38.7,29.45,East,90,1.1,1.6,83,0.00,,,0.06,WUHU216HW,2013-04-12 12:04:00,
2013-04-12 13:09:00,43.6,38.1,29.45,ENE,68,0.7,1.1,81,0.00,,,0.06,WUHU216HW,2013-04-12 12:09:00,
2013-04-12 13:14:00,43.7,38.9,29.45,ESE,113,0.0,1.1,83,0.00,,,0.06,WUHU216HW,2013-04-12 12:14:00,
2013-04-12 13:19:00,43.9,39.1,29.45,ESE,113,0.2,0.7,83,0.00,,,0.06,WUHU216HW,2013-04-12 12:19:00,
2013-04-12 13:24:00,43.9,38.8,29.45,ESE,113,1.1,1.1,82,0.00,,,0.06,WUHU216HW,2013-04-12 12:24:00,
2013-04-12 13:29:00,44.1,39.0,29.45,ESE,113,0.2,1.1,82,0.00,,,0.06,WUHU216HW,2013-04-12 12:29:00,
2013-04-12 13:34:00,44.1,39.0,29.45,ESE,113,1.8,1.8,82,0.00,,,0.06,WUHU216HW,2013-04-12 12:34:00,
2013-04-12 13:39:00,44.1,38.6,29.45,NE,45,1.1,1.8,81,0.00,,,0.06,WUHU216HW,2013-04-12 12:39:00,
2013-04-12 13:44:00,43.9,38.8,29.46,ENE,68,0.4,1.8,82,0.00,,,0.06,WUHU216HW,2013-04-12 12:44:00,
2013-04-12 13:49:00,44.1,39.0,29.45,East,90,0.9,1.1,82,0.00,,,0.06,WUHU216HW,2013-04-12 12:49:00,
2013-04-12 13:54:00,44.1,39.0,29.46,ESE,113,1.1,1.1,82,0.00,,,0.06,WUHU216HW,2013-04-12 12:54:00,
2013-04-12 13:59:00,43.9,39.1,29.46,ESE,113,1.1,1.1,83,0.00,,,0.06,WUHU216HW,2013-04-12 12:59:00,
2013-04-12 14:04:00,44.1,39.2,29.46,SE,135,0.7,1.1,83,0.00,,,0.06,WUHU216HW,2013-04-12 13:04:00,
2013-04-12 14:09:00,43.9,39.1,29.46,ENE,68,1.1,1.1,83,0.00,,,0.06,WUHU216HW,2013-04-12 13:09:00,
2013-04-12 14:14:00,43.9,39.4,29.47,East,90,0.2,1.1,84,0.01,,,0.07,WUHU216HW,2013-04-12 13:14:00,
2013-04-12 14:19:00,43.9,39.4,29.46,ESE,113,1.8,1.8,84,0.01,,,0.07,WUHU216HW,2013-04-12 13:19:00,
2013-04-12 14:24:00,43.9,39.4,29.47,SE,135,0.9,1.8,84,0.01,,,0.07,WUHU216HW,2013-04-12 13:24:00,
2013-04-12 14:29:00,44.1,39.6,29.47,ENE,68,0.4,1.8,84,0.01,,,0.07,WUHU216HW,2013-04-12 13:29:00,
2013-04-12 14:34:00,44.3,39.8,29.47,ENE,68,1.8,1.8,84,0.01,,,0.07,WUHU216HW,2013-04-12 13:34:00,
2013-04-12 14:39:00,44.3,39.8,29.47,ESE,113,1.1,1.8,84,0.01,,,0.07,WUHU216HW,2013-04-12 13:39:00,
2013-04-12 14:44:00,44.1,39.6,29.47,SE,135,1.8,1.8,84,0.01,,,0.07,WUHU216HW,2013-04-12 13:44:00,
2013-04-12 14:49:00,44.1,39.6,29.47,East,90,0.7,1.8,84,0.01,,,0.07,WUHU216HW,2013-04-12 13:49:00,
2013-04-12 14:54:00,43.9,39.4,29.47,ENE,68,2.0,2.0,84,0.01,,,0.07,WUHU216HW,2013-04-12 13:54:00,
2013-04-12 14:59:00,43.7,39.3,29.47,SSE,158,1.8,2.0,84,0.01,,,0.07,WUHU216HW,2013-04-12 13:59:00,
2013-04-12 15:04:00,43.7,39.3,29.47,ENE,68,1.6,2.0,84,0.01,,,0.07,WUHU216HW,2013-04-12 14:04:00,
2013-04-12 15:09:00,43.7,39.3,29.47,SE,135,0.9,1.8,84,0.00,,,0.07,WUHU216HW,2013-04-12 14:09:00,
2013-04-12 15:14:00,43.9,39.4,29.47,ESE,113,0.4,2.7,84,0.00,,,0.07,WUHU216HW,2013-04-12 14:14:00,
2013-04-12 15:19:00,43.9,39.4,29.48,ESE,113,0.7,2.7,84,0.00,,,0.07,WUHU216HW,2013-04-12 14:19:00,
2013-04-12 15:24:00,43.9,39.1,29.48,ENE,68,0.4,0.7,83,0.00,,,0.07,WUHU216HW,2013-04-12 14:24:00,
2013-04-12 15:29:00,43.7,38.9,29.48,NNE,23,2.0,2.0,83,0.00,,,0.07,WUHU216HW,2013-04-12 14:29:00,
2013-04-12 15:34:00,43.7,38.9,29.48,East,90,0.9,2.0,83,0.00,,,0.07,WUHU216HW,2013-04-12 14:34:00,
2013-04-12 15:39:00,43.7,38.9,29.48,ENE,68,0.4,2.0,83,0.00,,,0.07,WUHU216HW,2013-04-12 14:39:00,
2013-04-12 15:44:00,43.9,39.1,29.48,WSW,248,1.1,1.1,83,0.00,,,0.07,WUHU216HW,2013-04-12 14:44:00,
2013-04-12 15:49:00,43.9,39.4,29.48,ESE,113,2.9,2.9,84,0.00,,,0.07,WUHU216HW,2013-04-12 14:49:00,
2013-04-12 15:54:00,44.1,39.6,29.49,ENE,68,2.5,2.9,84,0.00,,,0.07,WUHU216HW,2013-04-12 14:54:00,
2013-04-12 15:59:00,44.3,39.4,29.49,SE,135,1.1,2.9,83,0.00,,,0.07,WUHU216HW,2013-04-12 14:59:00,
2013-04-12 16:04:00,44.1,39.0,29.49,SE,135,2.5,2.5,82,0.00,,,0.07,WUHU216HW,2013-04-12 15:04:00,
2013-04-12 16:09:00,44.1,39.2,29.49,SE,135,2.0,2.5,83,0.00,,,0.07,WUHU216HW,2013-04-12 15:09:00,
2013-04-12 16:14:00,44.1,39.2,29.50,SE,135,2.5,2.5,83,0.00,,,0.07,WUHU216HW,2013-04-12 15:14:00,
2013-04-12 16:19:00,43.9,39.1,29.50,SE,135,2.2,2.5,83,0.00,,,0.07,WUHU216HW,2013-04-12 15:19:00,
2013-04-12 16:24:00,43.9,39.1,29.50,SSE,158,0.9,2.2,83,0.00,,,0.07,WUHU216HW,2013-04-12 15:24:00,
2013-04-12 16:29:00,43.7,38.9,29.50,SE,135,0.2,2.2,83,0.00,,,0.07,WUHU216HW,2013-04-12 15:29:00,
2013-04-12 16:34:00,43.7,38.9,29.51,SE,135,0.4,0.9,83,0.00,,,0.07,WUHU216HW,2013-04-12 15:34:00,
2013-04-12 16:39:00,43.6,39.3,29.51,East,90,1.8,1.8,85,0.01,,,0.07,WUHU216HW,2013-04-12 15:39:00,
2013-04-12 16:44:00,43.4,39.2,29.51,ESE,113,0.2,1.8,85,0.01,,,0.08,WUHU216HW,2013-04-12 15:44:00,
2013-04-12 16:49:00,43.4,39.2,29.52,ESE,113,1.3,1.8,85,0.01,,,0.08,WUHU216HW,2013-04-12 15:49:00,
2013-04-12 16:54:00,43.2,39.0,29.52,ESE,113,0.4,1.3,85,0.02,,,0.08,WUHU216HW,2013-04-12 15:54:00,
2013-04-12 16:59:00,43.2,39.0,29.52,ESE,113,1.1,1.1,85,0.02,,,0.10,WUHU216HW,2013-04-12 15:59:00,
2013-04-12 17:04:00,43.0,39.1,29.52,East,90,0.4,1.1,86,0.03,,,0.10,WUHU216HW,2013-04-12 16:04:00,
2013-04-12 17:10:00,43.0,39.1,29.52,ESE,113,0.9,1.1,86,0.03,,,0.10,WUHU216HW,2013-04-12 16:10:00,
2013-04-12 17:15:00,42.8,38.9,29.52,SE,135,0.4,0.9,86,0.04,,,0.10,WUHU216HW,2013-04-12 16:15:00,
2013-04-12 17:20:00,43.0,38.8,29.52,SE,135,1.8,1.8,85,0.04,,,0.11,WUHU216HW,2013-04-12 16:20:00,
2013-04-12 17:25:00,43.0,39.1,29.53,ESE,113,0.4,1.8,86,0.04,,,0.11,WUHU216HW,2013-04-12 16:25:00,
2013-04-12 17:30:00,42.8,38.9,29.53,ESE,113,0.0,1.8,86,0.04,,,0.11,WUHU216HW,2013-04-12 16:30:00,
2013-04-12 17:35:00,42.8,38.9,29.53,ESE,113,1.1,1.1,86,0.04,,,0.11,WUHU216HW,2013-04-12 16:35:00,
2013-04-12 17:40:00,42.8,38.9,29.53,East,90,1.1,1.1,86,0.03,,,0.11,WUHU216HW,2013-04-12 16:40:00,
2013-04-12 17:45:00,42.8,38.9,29.53,SE,135,2.2,2.2,86,0.03,,,0.11,WUHU216HW,2013-04-12 16:45:00,
2013-04-12 17:50:00,42.8,38.9,29.53,ESE,113,2.5,2.5,86,0.03,,,0.11,WUHU216HW,2013-04-12 16:50:00,
2013-04-12 17:55:00,42.8,38.9,29.53,ESE,113,1.1,2.5,86,0.02,,,0.11,WUHU216HW,2013-04-12 16:55:00,
2013-04-12 18:00:00,42.8,38.9,29.54,ESE,113,1.6,2.5,86,0.02,,,0.11,WUHU216HW,2013-04-12 17:00:00,
2013-04-12 18:05:00,42.8,38.9,29.54,SE,135,0.4,1.6,86,0.01,,,0.11,WUHU216HW,2013-04-12 17:05:00,
2013-04-12 18:10:00,42.8,39.3,29.54,ESE,113,1.8,1.8,87,0.01,,,0.11,WUHU216HW,2013-04-12 17:10:00,
2013-04-12 18:15:00,42.8,38.9,29.54,East,90,0.9,1.8,86,0.01,,,0.12,WUHU216HW,2013-04-12 17:15:00,
2013-04-12 18:20:00,42.8,38.9,29.55,East,90,0.0,0.9,86,0.01,,,0.12,WUHU216HW,2013-04-12 17:20:00,
2013-04-12 18:25:00,42.7,39.1,29.55,ESE,113,0.4,0.9,87,0.01,,,0.12,WUHU216HW,2013-04-12 17:25:00,
2013-04-12 18:30:00,42.5,38.5,29.55,SE,135,0.7,0.7,86,0.01,,,0.12,WUHU216HW,2013-04-12 17:30:00,
2013-04-12 18:35:00,42.5,38.9,29.55,ESE,113,0.4,0.7,87,0.01,,,0.12,WUHU216HW,2013-04-12 17:35:00,
2013-04-12 18:40:00,42.5,38.5,29.55,ESE,113,1.3,1.3,86,0.01,,,0.12,WUHU216HW,2013-04-12 17:40:00,
2013-04-12 18:45:00,42.3,38.7,29.55,ESE,113,1.1,1.3,87,0.01,,,0.12,WUHU216HW,2013-04-12 17:45:00,
2013-04-12 18:50:00,42.3,38.7,29.55,SE,135,1.6,1.6,87,0.01,,,0.12,WUHU216HW,2013-04-12 17:50:00,
2013-04-12 18:55:00,42.1,38.5,29.55,SSE,158,1.6,1.6,87,0.01,,,0.12,WUHU216HW,2013-04-12 17:55:00,
2013-04-12 19:00:00,42.1,38.5,29.56,SE,135,2.0,2.0,87,0.01,,,0.12,WUHU216HW,2013-04-12 18:00:00,
2013-04-12 19:05:00,41.9,38.0,29.56,ESE,113,1.3,2.0,86,0.01,,,0.12,WUHU216HW,2013-04-12 18:05:00,
2013-04-12 19:10:00,41.9,38.0,29.56,East,90,1.1,1.3,86,0.00,,,0.12,WUHU216HW,2013-04-12 18:10:00,
2013-04-12 19:15:00,41.9,38.4,29.56,SE,135,1.3,1.3,87,0.00,,,0.12,WUHU216HW,2013-04-12 18:15:00,
2013-04-12 19:20:00,41.9,38.4,29.57,East,90,0.4,1.3,87,0.01,,,0.12,WUHU216HW,2013-04-12 18:20:00,
2013-04-12 19:25:00,41.9,38.4,29.57,ESE,113,1.1,1.1,87,0.01,,,0.13,WUHU216HW,2013-04-12 18:25:00,
2013-04-12 19:30:00,41.8,38.2,29.57,East,90,0.4,1.1,87,0.01,,,0.13,WUHU216HW,2013-04-12 18:30:00,
2013-04-12 19:42:00,41.8,38.2,29.58,ESE,113,0.0,1.3,87,0.01,,,0.13,WUHU216HW,2013-04-12 18:42:00,
2013-04-12 19:49:00,41.8,38.2,29.58,ENE,68,0.0,0.0,87,0.01,,,0.13,WUHU216HW,2013-04-12 18:49:00,
2013-04-12 19:55:00,41.6,38.0,29.58,ESE,113,1.8,1.8,87,0.01,,,0.13,WUHU216HW,2013-04-12 18:55:00,
2013-04-12 20:02:00,41.6,38.0,29.58,ESE,113,1.3,1.8,87,0.01,,,0.13,WUHU216HW,2013-04-12 19:02:00,
2013-04-12 20:09:00,41.6,38.0,29.58,ESE,113,0.4,1.3,87,0.01,,,0.13,WUHU216HW,2013-04-12 19:09:00,
2013-04-12 20:15:00,41.6,38.0,29.58,ESE,113,0.4,0.4,87,0.01,,,0.13,WUHU216HW,2013-04-12 19:15:00,
2013-04-12 20:26:00,41.4,37.8,29.59,ESE,113,0.0,0.4,87,0.00,,,0.13,WUHU216HW,2013-04-12 19:26:00,
2013-04-12 20:33:00,41.2,37.6,29.60,ESE,113,0.0,0.0,87,0.00,,,0.13,WUHU216HW,2013-04-12 19:33:00,
2013-04-12 20:38:00,41.2,37.6,29.60,ESE,113,0.0,0.0,87,0.00,,,0.13,WUHU216HW,2013-04-12 19:38:00,
2013-04-12 20:43:00,41.2,37.6,29.60,ESE,113,0.0,0.0,87,0.00,,,0.13,WUHU216HW,2013-04-12 19:43:00,
2013-04-12 20:48:00,41.2,37.6,29.60,ESE,113,0.0,0.0,87,0.00,,,0.13,WUHU216HW,2013-04-12 19:48:00,
2013-04-12 20:53:00,41.2,37.6,29.60,ESE,113,0.0,0.0,87,0.00,,,0.13,WUHU216HW,2013-04-12 19:53:00,
2013-04-12 20:58:00,41.2,37.6,29.61,ESE,113,0.0,0.0,87,0.00,,,0.13,WUHU216HW,2013-04-12 19:58:00,
2013-04-12 21:03:00,41.2,37.6,29.60,ESE,113,0.0,0.0,87,0.00,,,0.13,WUHU216HW,2013-04-12 20:03:00,
2013-04-12 21:08:00,41.2,37.6,29.61,ESE,113,0.0,0.0,87,0.00,,,0.13,WUHU216HW,2013-04-12 20:08:00,
2013-04-12 21:13:00,41.2,37.6,29.61,ESE,113,0.0,0.0,87,0.00,,,0.13,WUHU216HW,2013-04-12 20:13:00,
2013-04-12 21:18:00,41.2,37.6,29.60,ESE,113,0.0,0.0,87,0.00,,,0.13,WUHU216HW,2013-04-12 20:18:00,
2013-04-12 21:23:00,41.0,37.7,29.60,ESE,113,0.0,0.0,88,0.00,,,0.13,WUHU216HW,2013-04-12 20:23:00,
2013-04-12 21:28:00,41.0,37.7,29.60,ESE,113,0.0,0.0,88,0.00,,,0.13,WUHU216HW,2013-04-12 20:28:00,
2013-04-12 21:33:00,41.0,37.7,29.61,ESE,113,0.0,0.0,88,0.00,,,0.13,WUHU216HW,2013-04-12 20:33:00,
2013-04-12 21:38:00,41.0,37.7,29.61,ESE,113,0.0,0.0,88,0.00,,,0.13,WUHU216HW,2013-04-12 20:38:00,
2013-04-12 21:45:00,41.0,37.7,29.61,ESE,113,0.0,0.0,88,0.00,,,0.13,WUHU216HW,2013-04-12 20:45:00,
2013-04-12 21:54:00,41.0,37.7,29.61,ESE,113,0.0,0.0,88,0.00,,,0.13,WUHU216HW,2013-04-12 20:54:00,
2013-04-12 21:59:00,41.0,37.7,29.61,ESE,113,0.0,0.0,88,0.00,,,0.13,WUHU216HW,2013-04-12 20:59:00,
2013-04-12 22:04:00,41.0,37.7,29.62,ESE,113,0.0,0.0,88,0.00,,,0.13,WUHU216HW,2013-04-12 21:04:00,
2013-04-12 22:09:00,40.9,37.5,29.62,ESE,113,0.0,0.0,88,0.00,,,0.13,WUHU216HW,2013-04-12 21:09:00,
2013-04-12 22:14:00,40.9,37.5,29.62,ESE,113,0.0,0.0,88,0.00,,,0.13,WUHU216HW,2013-04-12 21:14:00,
2013-04-12 22:19:00,40.9,37.5,29.62,ESE,113,0.0,0.0,88,0.00,,,0.13,WUHU216HW,2013-04-12 21:19:00,
2013-04-12 22:24:00,40.7,37.4,29.62,ESE,113,0.0,0.0,88,0.00,,,0.13,WUHU216HW,2013-04-12 21:24:00,
2013-04-12 22:29:00,40.7,37.4,29.62,ESE,113,0.0,0.0,88,0.00,,,0.13,WUHU216HW,2013-04-12 21:29:00,
2013-04-12 22:34:00,40.7,37.4,29.62,ESE,113,0.0,0.0,88,0.00,,,0.13,WUHU216HW,2013-04-12 21:34:00,
2013-04-12 22:39:00,40.7,37.4,29.63,ESE,113,0.4,0.4,88,0.00,,,0.13,WUHU216HW,2013-04-12 21:39:00,
2013-04-12 22:44:00,40.7,37.7,29.63,ESE,113,0.0,0.4,89,0.00,,,0.13,WUHU216HW,2013-04-12 21:44:00,
2013-04-12 22:49:00,40.7,37.4,29.63,ESE,113,0.7,0.7,88,0.00,,,0.13,WUHU216HW,2013-04-12 21:49:00,
2013-04-12 22:54:00,40.7,37.7,29.63,ESE,113,0.0,0.7,89,0.00,,,0.13,WUHU216HW,2013-04-12 21:54:00,
2013-04-12 22:59:00,40.7,37.7,29.63,ESE,113,0.0,0.7,89,0.00,,,0.13,WUHU216HW,2013-04-12 21:59:00,
2013-04-12 23:04:00,40.5,37.5,29.63,ESE,113,0.0,0.0,89,0.00,,,0.13,WUHU216HW,2013-04-12 22:04:00,
2013-04-12 23:09:00,40.5,37.5,29.63,ESE,113,0.0,0.0,89,0.00,,,0.13,WUHU216HW,2013-04-12 22:09:00,
2013-04-12 23:14:00,40.5,37.5,29.63,ESE,113,0.0,0.0,89,0.00,,,0.13,WUHU216HW,2013-04-12 22:14:00,
2013-04-12 23:19:00,40.5,37.5,29.63,ESE,113,0.0,0.0,89,0.00,,,0.13,WUHU216HW,2013-04-12 22:19:00,
2013-04-12 23:24:00,40.5,37.5,29.64,ESE,113,0.0,0.0,89,0.00,,,0.13,WUHU216HW,2013-04-12 22:24:00,
2013-04-12 23:29:00,40.5,37.5,29.64,ESE,113,0.0,0.0,89,0.00,,,0.13,WUHU216HW,2013-04-12 22:29:00,
2013-04-12 23:34:00,40.5,37.5,29.64,ESE,113,0.0,0.0,89,0.00,,,0.13,WUHU216HW,2013-04-12 22:34:00,
2013-04-12 23:39:00,40.3,37.4,29.64,ESE,113,0.0,0.0,89,0.00,,,0.13,WUHU216HW,2013-04-12 22:39:00,
2013-04-12 23:44:00,40.3,37.4,29.64,ESE,113,0.0,0.0,89,0.00,,,0.13,WUHU216HW,2013-04-12 22:44:00,
2013-04-12 23:49:00,40.3,37.4,29.65,ESE,113,0.0,0.0,89,0.00,,,0.13,WUHU216HW,2013-04-12 22:49:00,
2013-04-12 23:54:00,40.3,37.4,29.65,ESE,113,0.0,0.0,89,0.00,,,0.13,WUHU216HW,2013-04-12 22:54:00,
2013-04-12 23:59:00,40.3,37.4,29.65,ESE,113,0.0,0.0,89,0.00,,,0.13,WUHU216HW,2013-04-12 22:59:00,